Regional Weather Roundup
Issued by NWS

Home | Current Version | Previous Version | Graphics & Text | Print | Product List | Glossary On
Versions: 1 2 3 4 5 6 7 8 9 10 11 12 13 14 15 16 17 18 19 20 21 22 23 24 25 26 27 28 29 30 31 32 33 34 35 36 37 38 39 40 41 42 43 44 45 46 47 48 49 50
000
ASUS43 KLMK 020710
RWRKY
KENTUCKY REGIONAL WEATHER ROUNDUP
NATIONAL WEATHER SERVICE LOUISVILLE KY
300 AM EDT TUE SEP 02 2014

NOTE "FAIR" INDICATES FEW OR NO CLOUDS BELOW 12,000 FEET
WITH NO SIGNIFICANT WEATHER AND/OR OBSTRUCTIONS TO VISIBILITY.

KYZ001>023-026-027-061>063-070>075-020800-
WESTERN AND SOUTH CENTRAL KENTUCKY

CITY           SKY/WX    TMP DP  RH WIND       PRES   REMARKS
PADUCAH        CLOUDY    79  72  79 S7        29.95F
HENDERSON      CLOUDY    77  70  78 S8        29.94F
OWENSBORO      NOT AVBL
HOPKINSVILLE   PTCLDY    76  72  87 S8        29.99F
BOWLING GREEN  MOCLDY    75  68  78 S5        30.01F
GLASGOW        CLEAR     74  67  79 CALM      30.02S
$$

KYZ024-025-028>034-038-045-046-053-020800-
NORTH CENTRAL KENTUCKY

CITY           SKY/WX    TMP DP  RH WIND       PRES   REMARKS
LOUISVILLE/SDF CLOUDY    78  71  79 S10       29.96F
LOUISVILLE/LOU MOCLDY    77  72  84 S3        29.97F
FORT KNOX      MOCLDY    73  73 100 S8        29.97F
$$

KYZ035>037-039>044-047>052-055>060-089>105-020800-
NORTHEAST KENTUCKY

CITY           SKY/WX    TMP DP  RH WIND       PRES   REMARKS
LEXINGTON      MOCLDY    76  70  82 SW8       30.02R
COVINGTON      CLOUDY    75  71  87 S7        29.97S
FRANKFORT      MOCLDY    76  69  79 SW9       29.99R
$$

KYZ054-064>069-076>088-106>120-020800-
SOUTHEAST KENTUCKY

CITY           SKY/WX    TMP DP  RH WIND       PRES   REMARKS
JACKSON        CLEAR     74  69  85 VRB3      30.06S
LONDON         CLEAR     71  67  87 CALM      30.07S
SOMERSET       MOCLDY    72  70  94 CALM      30.06S
MIDDLESBORO    CLEAR     69  69  98 CALM      30.09R
MONTICELLO     SUNNY     70  69  96 CALM      30.07S
$$




USA.gov is the U.S. government's official web portal to all federal, state and local government web resources and services.